Location: Unspecified
(0.0000°N, 0.0000°E)
Time: 11:26:22
(UTC+00:00)

Vanguard 1 Rocket - Pass Details

Date: 19 November 2019
Orbit: 650 x 4226 km, 34.3° (Epoch: 07 December)

Event Time Altitude Azimuth Distance (km) Brightness Sun altitude
Rises 13:56:22 0° 271° (W) 6,448 12.2 52.5°
Reaches altitude 10° 14:00:49 10° 262° (W) 5,891 12.3 51.5°
Maximum altitude 14:18:21 34° 203° (SSW) 5,351 12.5 47.8°
Drops below altitude 10° 14:40:51 10° 145° (SE) 7,308 12.0 42.8°
Sets 14:47:35 0° 135° (SE) 8,081 12.1 41.3°
